Coral Harbour, Nunavut

9:17 AM EST on August 16, 2017 (GMT -0500)
Coral Harbour

Weather History for CYZS - September, 2012

Change the Weather History Date:

Tuesday, September 11, 2012

  Actual Average Record
Temperature  
Mean Temperature 42 °F -  
Max Temperature 53 °F 34 °F 53 °F (2006)
Min Temperature 30 °F 22 °F 24 °F (1997)
Degree Days  
Heating Degree Days 24    
Moisture  
Dew Point 35 °F    
Average Humidity 79    
Maximum Humidity 100    
Minimum Humidity 44    
Precipitation  
Precipitation 0.02 in 0.05 in - ()
Sea Level Pressure  
Sea Level Pressure 29.76 in    
Wind  
Wind Speed 5 mph ()    
Max Wind Speed 15 mph    
Max Gust Speed -    
Visibility 15.0 miles    
Events Rain    
Averages and records for this station are not official NWS values.
T = Trace of Precipitation, MM = Missing Value Source: Averaged Metar Reports

Daily Weather History Graph

Daily Weather History Graph

Search for Another Location

Airport or City:

Trip Planner

Search our weather history database for the weather conditions in past years. The results will help you decide how hot, cold, wet, or windy it might be!

Date:

Astronomy

Sep. 11, 2012 Rise Set
Actual Time 6:46 AM EDT 8:11 PM EDT
Civil Twilight 5:56 AM EDT 9:01 PM EDT
Nautical Twilight 4:52 AM EDT 10:04 PM EDT
Astronomical Twilight 3:28 AM EDT 11:26 PM EDT
Moon 12:34 AM EDT (9/11) 6:32 PM EDT (9/11)
Length of Visible Light 15h 04m
Length of Day
13h 25m
Waning Crescent, 21% of the Moon is Illuminated
Sep 11
Waning Crescent
Sep 15
New
Sep 22
First Quarter
Sep 29
Full
Oct 8
Last Quarter

Hourly Weather History & Observations

Time (EDT) Temp. Windchill Dew Point Humidity Pressure Visibility Wind Dir Wind Speed Gust Speed Precip Events Conditions
12:00 AM 33.8 °F - 32.0 °F 93% 29.74 in 15.0 mi Calm Calm - N/A   Partly Cloudy
1:00 AM 33.8 °F - 32.0 °F 93% 29.74 in 15.0 mi Calm Calm - N/A   Partly Cloudy
2:00 AM 34 °F - 32 °F 87% 29.75 in 15 mi NNW 6.9 mph - -   Scattered Clouds
2:00 AM 33.8 °F 27.7 °F 32.0 °F 93% 29.75 in 15.0 mi NNW 6.9 mph - N/A   Partly Cloudy
3:00 AM 30.2 °F 24.3 °F 30.2 °F 100% 29.76 in 15.0 mi WNW 5.8 mph - N/A   Partly Cloudy
4:00 AM 30.2 °F 24.3 °F 30.2 °F 100% 29.76 in 15.0 mi NW 5.8 mph - N/A   Partly Cloudy
5:00 AM 32.0 °F 24.8 °F 30.2 °F 93% 29.77 in 15.0 mi NW 8.1 mph - N/A   Clear
6:00 AM 32.0 °F 24.2 °F 30.2 °F 93% 29.77 in 15.0 mi NW 9.2 mph - N/A   Clear
7:00 AM 30.2 °F - 28.4 °F 93% 29.78 in 15.0 mi Calm Calm - N/A   Partly Cloudy
8:00 AM 33 °F - 30 °F 86% 29.78 in 15 mi NNW 2.3 mph - -   Partly Cloudy
8:00 AM 33.8 °F - 30.2 °F 87% 29.78 in 15.0 mi NNW 2.3 mph - N/A   Scattered Clouds
9:00 AM 33.8 °F - 32.0 °F 93% 29.78 in 15.0 mi Calm Calm - N/A   Partly Cloudy
10:00 AM 39.2 °F - 33.8 °F 81% 29.78 in 15.0 mi Calm Calm - N/A   Partly Cloudy
11:00 AM 42.8 °F 38.6 °F 35.6 °F 76% 29.77 in 15.0 mi SW 6.9 mph - N/A   Partly Cloudy
12:00 PM 48.2 °F - 33.8 °F 58% 29.77 in 15.0 mi West 9.2 mph - N/A   Scattered Clouds
1:00 PM 48.2 °F - 35.6 °F 62% 29.76 in 15.0 mi West 10.4 mph - N/A   Mostly Cloudy
2:00 PM 52 °F - 37 °F 44% 29.75 in 15 mi West 11.5 mph - -   Mostly Cloudy
2:00 PM 51.8 °F - 37.4 °F 58% 29.75 in 15.0 mi West 11.5 mph - N/A   Mostly Cloudy
3:00 PM 53.6 °F - 39.2 °F 58% 29.75 in 15.0 mi WNW 8.1 mph - N/A   Mostly Cloudy
4:00 PM 51.8 °F - 39.2 °F 62% 29.76 in 15.0 mi West 11.5 mph - N/A   Mostly Cloudy
5:00 PM 51.8 °F - 39.2 °F 62% 29.75 in 15.0 mi WNW 15.0 mph - N/A   Overcast
5:45 PM - - - N/A% - 15.0 mi NW 12.7 mph - N/A Rain Light Rain
6:00 PM 50.0 °F - 39.2 °F 66% 29.76 in 15.0 mi NW 12.7 mph - N/A Rain Light Rain
6:25 PM - - - N/A% - 15.0 mi NW 11.5 mph - N/A   Overcast
8:00 PM 46 °F - 39 °F 69% 29.75 in 15 mi NW 5.8 mph - -   Partly Cloudy
8:00 PM 46.4 °F 43.5 °F 39.2 °F 76% 29.75 in 15.0 mi NW 5.8 mph - N/A   Overcast
9:00 PM 44.6 °F 42.2 °F 39.2 °F 81% 29.75 in 15.0 mi NW 4.6 mph - N/A   Overcast
10:00 PM 44.6 °F 40.7 °F 39.2 °F 81% 29.75 in 15.0 mi NW 6.9 mph - N/A   Overcast
10:54 PM - - - N/A% - 15.0 mi NW 5.8 mph - N/A Rain Light Rain
11:00 PM 42.8 °F 39.3 °F 39.2 °F 87% 29.74 in 15.0 mi NW 5.8 mph - N/A Rain Light Rain